Rochester, Indiana, United States (46975)
Lat: 41.06N, Lon: 86.22W
Wx Zone: INZ015
Local Info
Past Weather Observations for Today

NOTE: This archive is for the closest National Weather Service station to Rochester. Information may differ from the station used for current weather conditions.

Click here for Long-term Archive

Time Weather Temperature Dewpoint Humidity Pressure Winds Precip Visibility
08:15
Overcast
Fog And Mist
73°F / 23°C 72°F / 22°C 94% 29.89 in
(1012 mb)
S 6.9 mph
(S 11 kph)
- 5SM
07:55
Overcast
Fog And Mist
72°F / 22°C 70°F / 21°C 94% 29.89 in
(1012 mb)
SSE 6.9 mph
(SSE 11 kph)
- 5SM
07:35
Overcast
Fog And Mist
72°F / 22°C 70°F / 21°C 94% 29.89 in
(1012 mb)
SSE 8.1 mph
(SSE 13 kph)
- 5SM
07:15
Overcast
Fog And Mist
72°F / 22°C 70°F / 21°C 94% 29.89 in
(1012 mb)
SSE 6.9 mph
(SSE 11 kph)
- 5SM
06:55
Overcast
Fog And Mist
72°F / 22°C 70°F / 21°C 94% 29.89 in
(1012 mb)
S 5.8 mph
(S 9 kph)
- 5SM
06:35
Overcast
Fog And Mist
70°F / 21°C 70°F / 21°C 100% 29.92 in
(1013 mb)
S 5.8 mph
(S 9 kph)
- 5SM
06:15
Overcast
70°F / 21°C 70°F / 21°C 100% 29.92 in
(1013 mb)
S 4.6 mph
(S 7 kph)
- 7SM
05:55
Mostly Cloudy
Fog And Mist
70°F / 21°C 70°F / 21°C 100% 29.92 in
(1013 mb)
S 3.5 mph
(S 6 kph)
- 5SM
05:35
Partly Cloudy
Fog And Mist
70°F / 21°C 70°F / 21°C 100% 29.92 in
(1013 mb)
SSE 3.5 mph
(SSE 6 kph)
- 5SM
05:15
Partly Cloudy
Fog And Mist
70°F / 21°C 70°F / 21°C 100% 29.92 in
(1013 mb)
S 3.5 mph
(S 6 kph)
- 5SM
04:55
Partly Cloudy
Fog And Mist
70°F / 21°C 70°F / 21°C 100% 29.92 in
(1013 mb)
S 3.5 mph
(S 6 kph)
- 5SM
04:35
Partly Cloudy
Fog And Mist
70°F / 21°C 70°F / 21°C 100% 29.92 in
(1013 mb)
S 3.5 mph
(S 6 kph)
- 5SM
04:15
Partly Cloudy
Fog And Mist
70°F / 21°C 70°F / 21°C 100% 29.92 in
(1013 mb)
S 4.6 mph
(S 7 kph)
- 5SM
03:55
Clear
70°F / 21°C 70°F / 21°C 100% 29.92 in
(1013 mb)
S 4.6 mph
(S 7 kph)
- 7SM
03:35
Partly Cloudy
70°F / 21°C 70°F / 21°C 100% 29.92 in
(1013 mb)
S 4.6 mph
(S 7 kph)
- 7SM
03:15
Partly Cloudy
70°F / 21°C 70°F / 21°C 100% 29.92 in
(1013 mb)
Calm - 7SM
02:55
Clear
72°F / 22°C 70°F / 21°C 94% 29.92 in
(1013 mb)
S 4.6 mph
(S 7 kph)
- 7SM
02:35
Partly Cloudy
72°F / 22°C 70°F / 21°C 94% 29.92 in
(1013 mb)
S 4.6 mph
(S 7 kph)
- 7SM
02:15
Partly Cloudy
72°F / 22°C 70°F / 21°C 94% 29.95 in
(1014 mb)
SSE 4.6 mph
(SSE 7 kph)
- 7SM
01:55
Clear
72°F / 22°C 70°F / 21°C 94% 29.95 in
(1014 mb)
S 4.6 mph
(S 7 kph)
- 7SM
01:35
Clear
72°F / 22°C 70°F / 21°C 94% 29.95 in
(1014 mb)
S 4.6 mph
(S 7 kph)
- 7SM
01:15
Partly Cloudy
72°F / 22°C 70°F / 21°C 94% 29.95 in
(1014 mb)
SSE 3.5 mph
(SSE 6 kph)
- 7SM
00:55
Partly Cloudy
72°F / 22°C 70°F / 21°C 94% 29.95 in
(1014 mb)
SSE 3.5 mph
(SSE 6 kph)
- 7SM
00:35
Partly Cloudy
72°F / 22°C 70°F / 21°C 94% 29.95 in
(1014 mb)
Calm - 7SM
00:15
Partly Cloudy
72°F / 22°C 70°F / 21°C 94% 29.95 in
(1014 mb)
SSE 3.5 mph
(SSE 6 kph)
- 7SM
Time Weather Temperature Dewpoint Humidity Pressure Winds Precip Visibility


Weather for websites

WeatherForYou.com, LLC is not responsible for any damages or problems caused by this service. Current weather conditions are obtained from the closest station including government and personal stations which may have varying degrees of accuracy. Weather forecasts are derived from the NOAA NDFD. Like all things, this site belongs to Jesus Christ... He just trusts me to maintain it. If you have any questions or comments email webmaster@weatherforyou.com

Copyright © 2014, WeatherForYou.com LLC. All rights reserved.